TimeMDT,TemperatureF,Dew PointF,Humidity,Sea Level PressureIn,VisibilityMPH,Wind Direction,Wind SpeedMPH,Gust SpeedMPH,PrecipitationIn,Events,Conditions,WindDirDegrees,DateUTC
12:53 AM,45.0,37.9,76,30.14,10.0,Calm,Calm,-,N/A,,Clear,0,2012-10-15 06:53:00
1:53 AM,41.0,37.0,86,30.14,10.0,ENE,3.5,-,N/A,,Clear,60,2012-10-15 07:53:00
2:53 AM,41.0,37.9,89,30.14,10.0,ENE,4.6,-,N/A,,Clear,70,2012-10-15 08:53:00
3:53 AM,39.0,36.0,89,30.11,10.0,SSW,5.8,-,N/A,,Clear,200,2012-10-15 09:53:00
4:53 AM,36.0,34.0,93,30.11,10.0,Calm,Calm,-,N/A,,Clear,0,2012-10-15 10:53:00
5:53 AM,39.0,36.0,89,30.09,10.0,Calm,Calm,-,N/A,,Clear,0,2012-10-15 11:53:00
6:53 AM,34.0,32.0,92,30.13,10.0,Calm,Calm,-,N/A,,Clear,0,2012-10-15 12:53:00
7:53 AM,43.0,32.0,65,30.12,10.0,SE,6.9,-,N/A,,Clear,140,2012-10-15 13:53:00
8:53 AM,44.1,37.0,76,30.14,10.0,Calm,Calm,-,N/A,,Clear,0,2012-10-15 14:53:00
9:53 AM,57.9,36.0,44,30.10,10.0,WNW,4.6,-,N/A,,Clear,300,2012-10-15 15:53:00
10:53 AM,60.1,37.9,44,30.10,10.0,Calm,Calm,-,N/A,,Clear,0,2012-10-15 16:53:00
11:53 AM,64.9,39.0,39,30.07,10.0,SW,4.6,-,N/A,,Clear,220,2012-10-15 17:53:00
12:53 PM,69.1,37.0,31,30.06,10.0,SSW,8.1,-,N/A,,Clear,200,2012-10-15 18:53:00
1:53 PM,69.1,33.1,26,30.05,10.0,SE,4.6,-,N/A,,Clear,130,2012-10-15 19:53:00
2:53 PM,70.0,30.9,24,30.01,10.0,Calm,Calm,-,N/A,,Clear,0,2012-10-15 20:53:00
3:53 PM,72.0,28.9,20,29.99,10.0,Calm,Calm,-,N/A,,Clear,0,2012-10-15 21:53:00
4:53 PM,72.0,28.0,20,30.00,10.0,Calm,Calm,-,N/A,,Clear,0,2012-10-15 22:53:00
5:53 PM,66.0,39.0,37,29.99,10.0,NNE,3.5,-,N/A,,Clear,20,2012-10-15 23:53:00
6:53 PM,62.1,39.9,44,30.02,10.0,SW,5.8,-,N/A,,Clear,220,2012-10-16 00:53:00
7:53 PM,57.0,39.9,53,30.00,10.0,Calm,Calm,-,N/A,,Clear,0,2012-10-16 01:53:00
8:53 PM,54.0,35.1,49,30.01,10.0,SW,5.8,-,N/A,,Clear,220,2012-10-16 02:53:00
9:53 PM,53.1,35.1,50,30.00,10.0,SSE,6.9,-,N/A,,Clear,160,2012-10-16 03:53:00
10:53 PM,53.1,30.9,43,30.00,10.0,SSE,8.1,-,N/A,,Clear,150,2012-10-16 04:53:00
11:53 PM,52.0,32.0,47,29.99,10.0,SSE,8.1,-,N/A,,Clear,150,2012-10-16 05:53:00